Location: Newark
(48.3453°N, 0.5589°E)
Time: 13:23:17
(UTC+00:00)

A-11 Canister half - Pass Details

Date: 15 December 2019
Orbit: 1516 x 1683 km, 47.2° (Epoch: 16 January)

Event Time Altitude Azimuth Distance (km) Brightness Sun altitude
Rises 14:18:20 0° 275° (W) 4,787 12.0 11.3°
Reaches altitude 10° 14:21:22 10° 275° (W) 3,824 11.6 11.0°
Maximum altitude 14:31:11 82° 190° (S) 1,664 9.5 10.1°
Drops below altitude 10° 14:41:18 10° 105° (ESE) 3,932 10.9 9.1°
Sets 14:44:29 0° 105° (ESE) 4,928 11.4 8.7°
